Weather reports worldwide

Advertisment
Wattisham, United Kingdom (3590): temperature & dewpoint: 18.05.2018 12:00:00 - 24.05.2018 12:00:00 (BST)Wattisham, United Kingdom (3590): temperature -20cm & temperature -100cm: 18.05.2018 12:00:00 - 24.05.2018 12:00:00 (BST)Wattisham, United Kingdom (3590): wind speed: 18.05.2018 12:00:00 - 24.05.2018 12:00:00 (BST)Wattisham, United Kingdom (3590): wind direction: 18.05.2018 12:00:00 - 24.05.2018 12:00:00 (BST)Wattisham, United Kingdom (3590): reduced air pressure: 18.05.2018 12:00:00 - 24.05.2018 12:00:00 (BST)Wattisham, United Kingdom (3590): visibility: 18.05.2018 12:00:00 - 24.05.2018 12:00:00 (BST)Wattisham, United Kingdom (3590): sunshine duration: 18.05.2018 12:00:00 - 24.05.2018 12:00:00 (BST)Wattisham, United Kingdom (3590): precipitation: 18.05.2018 12:00:00 - 24.05.2018 12:00:00 (BST)
Date & Time tt [°C] td [°C] tt -20cm [°C] tt -100cm [°C] ff [km/h] ff [kn] dd ppp [hPa] vv [km] sd [min] rr [mm]
24.05.2018 12:00:00 21,2 10,3 - - 21 11 NE 1020,0 10 60 0,0
24.05.2018 11:00:00 19,7 11,5 - - 18 10 NE 1020,6 10 54 0,0
24.05.2018 10:00:00 17,9 11,3 14,7 12,5 22 12 ENE 1021,0 10 60 0,0
24.05.2018 09:00:00 15,7 10,6 - - 22 12 NE 1021,2 10 60 0,0
24.05.2018 08:00:00 13,6 10,5 - - 18 10 NNE 1021,4 10 18 0,0
24.05.2018 07:00:00 11,5 9,6 - - 16 9 NE 1021,5 9 0 0,0
24.05.2018 06:00:00 10,6 9,2 - - 18 10 NNE 1021,6 7 0 0,0
24.05.2018 05:00:00 10,6 9,1 - - 21 11 NNE 1021,6 7 0 0,0
24.05.2018 04:00:00 10,7 9,0 - - 21 11 NNE 1022,1 9 0 0,0
24.05.2018 03:00:00 11,6 8,7 - - 18 10 NE 1022,4 12 0 0,0
24.05.2018 02:00:00 11,9 8,5 - - 16 9 NE 1022,8 10 0 0,0
24.05.2018 01:00:00 11,9 8,5 - - 16 9 NE 1023,1 12 - 0,0
24.05.2018 00:00:00 11,3 8,5 - - 22 12 NNE 1022,7 10 0 0,0
23.05.2018 23:00:00 11,4 8,4 - - 24 13 NNE 1023,0 10 0 0,0
23.05.2018 22:00:00 11,6 8,4 - - 22 12 NNE 1023,3 10 0 0,0
23.05.2018 21:00:00 12,3 8,3 - - 21 11 NNE 1023,2 10 0 0,0
23.05.2018 20:00:00 13,7 8,3 - - 24 13 NNE 1022,7 10 0 0,0
23.05.2018 19:00:00 14,4 8,9 - - 26 14 NNE 1022,3 10 0 0,0
23.05.2018 18:00:00 15,2 8,7 - - 26 14 NNE 1022,3 10 0 0,0
23.05.2018 17:00:00 16,2 9,2 - - 28 15 NNE 1022,6 10 18 0,0
23.05.2018 16:00:00 17,6 9,6 - - 28 15 NE 1022,7 10 30 0,0
23.05.2018 15:00:00 19,0 9,4 - - 29 16 NNE 1022,6 30 54 0,0
23.05.2018 14:00:00 18,3 10,1 - - 29 16 NNE 1022,9 25 60 0,0
23.05.2018 13:00:00 17,1 10,4 - - 28 15 NNE 1023,1 10 60 0,0
23.05.2018 12:00:00 15,0 9,9 - - 26 14 N 1023,5 10 54 0,0
23.05.2018 11:00:00 12,8 9,3 - - 28 15 N 1023,7 10 6 0,0
23.05.2018 10:00:00 11,6 8,8 14,7 12,2 28 15 N 1023,5 10 6 0,0
23.05.2018 09:00:00 10,0 8,2 - - 28 15 N 1023,6 10 0 0,0
23.05.2018 08:00:00 9,7 8,1 - - 24 13 N 1023,1 10 0 0,0
23.05.2018 07:00:00 9,3 8,1 - - 26 14 N 1022,7 7 0 0,0
23.05.2018 06:00:00 8,9 7,9 - - 26 14 N 1022,1 5 0 0,0
23.05.2018 05:00:00 8,9 7,9 - - 26 14 N 1021,8 4,9 0 0,0
23.05.2018 04:00:00 9,2 8,1 - - 24 13 N 1021,8 5 0 0,0
23.05.2018 03:00:00 9,3 8,1 - - 22 12 N 1021,7 5 0 0,0
23.05.2018 02:00:00 9,6 8,4 - - 24 13 N 1021,6 5 0 0,0
23.05.2018 01:00:00 9,6 8,2 - - 26 14 N 1021,3 6 - 0,0
23.05.2018 00:00:00 9,8 8,3 - - 24 13 N 1021,1 7 0 0,0
22.05.2018 23:00:00 10,0 8,4 - - 29 16 N 1020,6 10 0 0,0
22.05.2018 22:00:00 10,4 8,5 - - 24 13 N 1020,4 10 0 0,0
22.05.2018 21:00:00 10,9 8,7 - - 26 14 N 1019,7 15 0 0,0
22.05.2018 20:00:00 12,7 9,1 - - 26 14 N 1019,0 10 60 0,0
22.05.2018 19:00:00 15,2 9,2 - - 31 17 NNE 1018,2 10 60 0,0
22.05.2018 18:00:00 16,7 9,7 - - 28 15 N 1017,5 10 60 0,0
22.05.2018 17:00:00 17,9 10,4 - - 29 16 N 1017,0 10 60 0,0
22.05.2018 16:00:00 18,8 10,6 - - 28 15 N 1016,6 10 60 0,0
22.05.2018 15:00:00 19,4 10,8 - - 26 14 N 1016,5 10 60 0,0
22.05.2018 14:00:00 20,1 11,0 - - 24 13 N 1016,1 10 60 0,0
22.05.2018 13:00:00 21,1 12,2 - - 26 14 N 1015,5 10 60 0,0
22.05.2018 12:00:00 20,1 11,1 - - 24 13 N 1015,3 10 60 0,0
22.05.2018 11:00:00 19,4 11,3 - - 24 13 N 1015,2 10 54 0,0
22.05.2018 10:00:00 17,6 10,7 14,5 12,2 24 13 N 1015,2 10 48 0,0
22.05.2018 09:00:00 15,7 10,5 - - 22 12 N 1015,0 10 54 0,0
22.05.2018 08:00:00 12,5 9,5 - - 18 10 N 1014,9 10 18 0,0
22.05.2018 07:00:00 9,8 8,3 - - 22 12 N 1014,5 10 0 0,0
22.05.2018 06:00:00 9,1 7,9 - - 21 11 N 1014,2 9 0 0,0
22.05.2018 05:00:00 8,9 7,6 - - 15 8 N 1014,1 9 0 0,0
22.05.2018 04:00:00 9,5 7,8 - - 18 10 N 1014,0 11 0 0,0
22.05.2018 03:00:00 9,3 7,8 - - 15 8 N 1014,1 10 0 0,0
22.05.2018 02:00:00 10,0 8,0 - - 11 6 N 1014,3 12 0 0,0
22.05.2018 01:00:00 10,6 8,7 - - 15 8 N 1014,2 10 - 0,0
22.05.2018 00:00:00 11,8 9,4 - - 13 7 N 1014,6 10 0 0,0
21.05.2018 23:00:00 11,9 9,6 - - 11 6 N 1014,7 10 0 0,0
21.05.2018 22:00:00 13,8 10,0 - - 13 7 NNE 1014,8 10 0 0,0
21.05.2018 21:00:00 14,8 9,4 - - 9 5 NNE 1014,4 10 0 0,0
21.05.2018 20:00:00 16,3 9,8 - - 11 6 NNE 1014,4 10 0 0,0
21.05.2018 19:00:00 18,1 7,4 - - 15 8 NE 1014,4 10 0 0,0
21.05.2018 18:00:00 20,2 8,2 - - 16 9 NE 1014,3 10 30 0,0
21.05.2018 17:00:00 21,0 6,4 - - 15 8 ENE 1014,3 10 60 0,0
21.05.2018 16:00:00 21,2 7,8 - - 15 8 ENE 1014,7 10 24 0,0
21.05.2018 15:00:00 20,6 6,5 - - 16 9 NE 1015,0 10 30 0,0
21.05.2018 14:00:00 20,3 7,0 - - 15 8 ENE 1015,4 10 6 0,0
21.05.2018 13:00:00 20,7 7,5 - - 15 8 ENE 1015,6 10 24 0,0
21.05.2018 12:00:00 19,3 10,5 - - 15 8 NE 1016,3 10 6 0,0
21.05.2018 11:00:00 17,1 11,7 - - 13 7 NE 1016,7 10 18 0,0
21.05.2018 10:00:00 16,0 12,0 14,4 12,0 11 6 NNE 1016,9 10 42 0,0
21.05.2018 09:00:00 13,6 10,6 - - 9 5 NE 1017,4 10 54 0,0
21.05.2018 08:00:00 11,4 9,4 - - 11 6 NNE 1017,6 9 60 0,0
21.05.2018 07:00:00 8,8 7,6 - - 13 7 NE 1018,0 5 30 0,0
21.05.2018 06:00:00 7,5 6,5 - - 13 7 NE 1018,3 4,2 0 0,0
21.05.2018 05:00:00 6,3 5,6 - - 9 5 NNE 1018,5 3,4 0 0,0
21.05.2018 04:00:00 5,7 5,2 - - 8 4 NNE 1018,8 2,9 0 0,0
21.05.2018 03:00:00 5,7 5,1 - - 9 5 NNE 1019,4 2,8 0 0,0
21.05.2018 02:00:00 5,9 5,2 - - 5 3 N 1020,1 2,7 0 0,0
21.05.2018 01:00:00 5,9 5,8 - - 5 3 NE 1020,6 0,9 - 0,0
21.05.2018 00:00:00 6,7 6,1 - - 9 5 NE 1020,9 0,3 0 0,0
20.05.2018 23:00:00 8,7 7,6 - - 8 4 ENE 1021,1 6 0 0,0
20.05.2018 22:00:00 10,4 8,4 - - 5 3 E 1021,2 10 0 0,0
20.05.2018 21:00:00 12,4 8,8 - - 13 7 ESE 1021,3 16 12 0,0
20.05.2018 20:00:00 14,2 8,8 - - 9 5 ESE 1020,7 23 60 0,0
20.05.2018 19:00:00 15,4 8,9 - - 15 8 ESE 1020,8 23 60 0,0
20.05.2018 18:00:00 17,1 8,9 - - 13 7 ESE 1020,6 35 60 0,0
20.05.2018 17:00:00 17,9 9,7 - - 15 8 SE 1020,9 22 60 0,0
20.05.2018 16:00:00 18,2 8,9 - - 13 7 SE 1021,4 35 54 0,0
20.05.2018 15:00:00 18,4 8,8 - - 9 5 SE 1021,9 19 60 0,0
20.05.2018 14:00:00 17,6 9,0 - - 8 4 E 1022,4 27 60 0,0
20.05.2018 13:00:00 16,3 7,9 - - 8 4 ESE 1023,0 13 60 0,0
20.05.2018 12:00:00 14,9 8,6 - - 8 4 SE 1023,5 10 60 0,0
20.05.2018 11:00:00 13,5 8,1 - - 8 4 SE 1023,9 19 60 0,0
20.05.2018 10:00:00 11,0 7,2 14,0 11,9 8 4 ESE 1024,3 10 36 0,0
20.05.2018 09:00:00 7,8 6,9 - - 8 4 SSE 1024,6 6 0 0,0
20.05.2018 08:00:00 7,2 6,9 - - 8 4 ESE 1024,6 2,2 0 0,0
20.05.2018 07:00:00 7,1 6,8 - - 5 3 SSE 1024,3 1,2 0 0,0
20.05.2018 06:00:00 6,8 6,5 - - 5 3 SSW 1023,7 0,4 0 0,0
20.05.2018 05:00:00 6,7 6,5 - - 5 3 SSE 1023,5 0,5 0 0,0
20.05.2018 04:00:00 7,0 6,8 - - 9 5 SSE 1023,7 0,2 0 0,0
20.05.2018 03:00:00 7,3 6,8 - - 8 4 S 1023,9 0,3 0 0,0
20.05.2018 02:00:00 7,0 6,5 - - 5 3 SSE 1024,4 2,3 0 0,0
20.05.2018 01:00:00 7,1 6,7 - - 5 3 SSE 1024,3 0,6 - 0,0
20.05.2018 00:00:00 7,6 7,2 - - 8 4 SE 1024,5 0,7 0 0,0
19.05.2018 23:00:00 7,9 7,4 - - 9 5 SSE 1024,5 0,8 0 0,0
19.05.2018 22:00:00 8,5 7,1 - - 11 6 SSE 1024,1 10 0 0,0
19.05.2018 21:00:00 10,0 7,6 - - 8 4 S 1023,7 21 12 0,0
19.05.2018 20:00:00 11,9 8,0 - - 15 8 SSE 1023,2 10 60 0,0
19.05.2018 19:00:00 14,2 8,6 - - 15 8 SE 1023,3 23 60 0,0
19.05.2018 18:00:00 16,1 9,0 - - 13 7 SSE 1023,3 35 54 0,0
19.05.2018 17:00:00 15,9 8,1 - - 11 6 ESE 1023,3 35 42 0,0
19.05.2018 16:00:00 16,7 8,6 - - 11 6 ENE 1023,6 26 48 0,0
19.05.2018 15:00:00 16,8 7,9 - - 9 5 NE 1023,7 11 54 0,0
19.05.2018 14:00:00 16,3 7,3 - - 9 5 NE 1024,2 30 60 0,0
19.05.2018 13:00:00 15,4 6,4 - - 9 5 NE 1024,6 19 60 0,0
19.05.2018 12:00:00 14,2 5,9 - - 8 4 N 1024,8 30 60 0,0
19.05.2018 11:00:00 12,8 5,5 - - 8 4 ENE 1025,0 18 60 0,0
19.05.2018 10:00:00 10,9 5,7 13,4 11,7 5 3 ENE 1025,0 10 60 0,0
19.05.2018 09:00:00 9,7 6,4 - - 4 2 ENE 1025,0 16 48 0,0
19.05.2018 08:00:00 8,9 6,4 - - 4 2 ENE 1024,9 10 60 0,0
19.05.2018 07:00:00 7,2 5,0 - - 5 3 ESE 1024,7 10 54 0,0
19.05.2018 06:00:00 4,0 3,3 - - 2 1 E 1024,8 5 0 0,0
19.05.2018 05:00:00 5,8 4,3 - - 5 3 ESE 1024,4 12 0 0,0
19.05.2018 04:00:00 5,9 4,6 - - 5 3 SE 1024,4 13 0 0,0
19.05.2018 03:00:00 5,5 4,5 - - 8 4 SE 1024,5 10 0 0,0
19.05.2018 02:00:00 5,6 4,3 - - 5 3 SW 1024,6 10 0 0,0
19.05.2018 01:00:00 4,7 4,0 - - 5 3 WSW 1024,7 6 - 0,0
19.05.2018 00:00:00 4,7 3,4 - - 4 2 SW 1024,9 10 0 0,0
18.05.2018 23:00:00 6,8 4,7 - - 8 4 SSE 1025,0 15 0 0,0
18.05.2018 22:00:00 7,8 5,4 - - 8 4 S 1025,2 15 0 0,0
18.05.2018 21:00:00 8,6 5,9 - - 8 4 SSE 1025,1 13 0 0,0
18.05.2018 20:00:00 10,0 6,0 - - 11 6 SE 1024,8 15 6 0,0
18.05.2018 19:00:00 11,3 5,7 - - 13 7 SSE 1024,7 15 54 0,0
18.05.2018 18:00:00 12,2 6,8 - - 16 9 SSE 1024,6 10 12 0,0
18.05.2018 17:00:00 14,2 7,3 - - 13 7 SE 1024,3 10 42 0,0
18.05.2018 16:00:00 15,7 5,2 - - 5 3 NE 1024,4 10 48 0,0
18.05.2018 15:00:00 14,6 4,7 - - 5 3 ESE 1024,7 10 36 0,0
18.05.2018 14:00:00 14,0 4,9 - - 9 5 NNE 1025,0 10 42 0,0
18.05.2018 13:00:00 13,3 4,0 - - 9 5 NNE 1025,4 10 42 0,0
18.05.2018 12:00:00 12,8 4,1 - - 8 4 NNE 1025,7 10 48 0,0

tt = temperature
td = dewpoint
tt -20cm = temperature -20cm
tt -100cm = temperature -100cm
ff = wind speed
dd = wind direction
ppp = reduced air pressure
vv = visibility
sd = sunshine duration
rr = precipitation

Next stations